Hyannis, MA

4:30 PM EDT on August 29, 2016 (GMT -0400)
Barnstable Municipal-Boardman-Polando Field

Weather History for KHYA - February, 2013

Change the Weather History Date:

Sunday, February 10, 2013

  Actual Average Record
Temperature  
Mean Temperature 24 °F -  
Max Temperature 34 °F 36 °F 54 °F (2001)
Min Temperature 10 °F 18 °F -2 °F (1934)
Degree Days  
Heating Degree Days 40    
Moisture  
Dew Point 15 °F    
Average Humidity 78    
Maximum Humidity 100    
Minimum Humidity 44    
Precipitation  
Precipitation 0.00 in - - ()
Sea Level Pressure  
Sea Level Pressure 30.30 in    
Wind  
Wind Speed 10 mph (WNW)    
Max Wind Speed 15 mph    
Max Gust Speed 25 mph    
Visibility 10 miles    
Events Snow    
Averages and records for this station are not official NWS values.
T = Trace of Precipitation, MM = Missing Value Source: NWS Daily Summary

Daily Weather History Graph

Daily Weather History Graph

Search for Another Location

Airport or City:

Trip Planner

Search our weather history database for the weather conditions in past years. The results will help you decide how hot, cold, wet, or windy it might be!

Date:

Astronomy

Feb. 10, 2013 Rise Set
Actual Time 6:42 AM EST 5:08 PM EST
Civil Twilight 6:13 AM EST 5:37 PM EST
Nautical Twilight 5:41 AM EST 6:10 PM EST
Astronomical Twilight 5:08 AM EST 6:42 PM EST
Moon 6:29 AM EST (2/10) 5:57 PM EST (2/10)
Length of Visible Light 11h 23m
Length of Day
10h 25m
New Moon, 0% of the Moon is Illuminated
Feb 10
New Moon
Feb 17
First Quarter
Feb 25
Full
Mar 4
Last Quarter
Mar 11
New

Hourly Weather History & Observations

Time (EST) Temp. Windchill Dew Point Humidity Pressure Visibility Wind Dir Wind Speed Gust Speed Precip Events Conditions
12:56 AM 18.0 °F 3.6 °F 14.0 °F 84% 30.12 in 10.0 mi NW 15.0 mph 25.3 mph N/A Snow Blowing Snow
1:56 AM 18.0 °F 4.8 °F 12.9 °F 81% 30.15 in 10.0 mi NW 12.7 mph 25.3 mph N/A Snow Blowing Snow
2:56 AM 19.0 °F 5.6 °F 14.0 °F 81% 30.17 in 10.0 mi NW 13.8 mph 21.9 mph N/A Snow Blowing Snow
3:56 AM 21.0 °F 9.9 °F 17.1 °F 85% 30.19 in 10.0 mi NNW 10.4 mph 20.7 mph N/A Snow Blowing Snow
4:56 AM 17.1 °F 5.0 °F 10.9 °F 77% 30.22 in 10.0 mi NW 10.4 mph - N/A Snow Blowing Snow
5:56 AM 18.0 °F 5.4 °F 10.9 °F 74% 30.25 in 10.0 mi NW 11.5 mph 19.6 mph N/A   Unknown
6:56 AM 16.0 °F 4.4 °F 10.0 °F 77% 30.28 in 10.0 mi NW 9.2 mph - N/A   Clear
7:56 AM 18.0 °F 6.1 °F 10.0 °F 71% 30.31 in 10.0 mi NW 10.4 mph - N/A   Unknown
8:56 AM 21.9 °F 11.0 °F 14.0 °F 72% 30.33 in 10.0 mi NW 10.4 mph - N/A   Clear
2:56 PM 34.0 °F 29.8 °F 14.0 °F 44% 30.34 in 10.0 mi NW 4.6 mph - N/A   Clear
3:56 PM 33.1 °F 26.1 °F 19.9 °F 59% 30.36 in 10.0 mi WSW 8.1 mph - N/A   Clear
4:56 PM 30.0 °F 24.1 °F 19.9 °F 66% 30.36 in 10.0 mi West 5.8 mph - N/A   Clear
5:56 PM 27.0 °F 20.5 °F 19.0 °F 72% 30.36 in 10.0 mi West 5.8 mph - N/A   Clear
6:56 PM 24.1 °F 18.2 °F 18.0 °F 77% 30.37 in 10.0 mi WSW 4.6 mph - N/A   Clear
7:56 PM 19.9 °F - 18.0 °F 92% 30.37 in 10.0 mi Calm Calm - N/A   Clear
8:56 PM 18.0 °F - 16.0 °F 92% 30.37 in 10.0 mi Calm Calm - N/A   Clear
9:56 PM 16.0 °F - 15.1 °F 96% 30.37 in 9.0 mi Calm Calm - N/A   Clear
10:56 PM 15.1 °F - 12.9 °F 91% 30.37 in 10.0 mi Calm Calm - N/A   Clear
11:56 PM 10.9 °F - 10.9 °F 100% 30.36 in 10.0 mi Calm Calm - N/A   Clear